GW7358 Weather Reports


Display with metric or nautical units.
time (UTC)temp
F
wind
direction
speed
MPH
gust
MPH
rain 1hr
in
rain 24hr
in
rain mn
in
humidity
%
barometer
mb
20260507170947 68 144 0.0 3.0 0.00 0.00 0.00 47 1019.6
20260507170444 68 194 2.0 2.0 0.00 0.00 0.00 47 1019.6
20260507165940 68 176 1.0 2.0 0.00 0.00 0.00 45 1019.6
20260507165436 69 202 1.0 2.0 0.00 0.00 0.00 44 1019.4
20260507164932 69 197 0.0 2.0 0.00 0.00 0.00 45 1019.4
20260507164429 70 193 0.0 2.0 0.00 0.00 0.00 44 1019.4
20260507163926 70 224 0.0 2.0 0.00 0.00 0.00 43 1019.1
20260507163424 71 204 0.0 2.0 0.00 0.00 0.00 44 1019.2
20260507162920 71 190 1.0 2.0 0.00 0.00 0.00 43 1019.2
20260507162415 71 149 0.0 1.0 0.00 0.00 0.00 43 1019.3
20260507161913 71 198 1.0 1.0 0.00 0.00 0.00 41 1019.2
20260507161409 71 230 0.0 0.0 0.00 0.00 0.00 38 1019.3
20260507160906 71 198 2.0 3.0 0.00 0.00 0.00 41 1019.5
20260507160401 71 214 4.0 4.0 0.00 0.00 0.00 40 1019.3
20260507155858 71 214 2.0 3.0 0.00 0.00 0.00 38 1019.3
20260507155354 71 216 3.0 3.0 0.00 0.00 0.00 38 1019.3
20260507154851 71 218 3.0 3.0 0.00 0.00 0.00 40 1019.1
20260507154348 71 242 2.0 3.0 0.00 0.00 0.00 39 1019.2
20260507153845 71 241 2.0 3.0 0.00 0.00 0.00 44 1019.2
20260507153341 72 228 3.0 3.0 0.00 0.00 0.00 47 1019.2
20260507152838 72 233 3.0 4.0 0.00 0.00 0.00 48 1018.9
20260507152334 72 215 2.0 5.0 0.00 0.00 0.00 46 1019.0
20260507151831 72 221 4.0 6.0 0.00 0.00 0.00 50 1019.2
20260507151327 73 208 4.0 6.0 0.00 0.00 0.00 42 1019.1
20260507150824 74 215 2.0 3.0 0.00 0.00 0.00 34 1019.4
20260507150320 74 185 0.0 2.0 0.00 0.00 0.00 35 1019.3
20260507145817 74 197 0.0 2.0 0.00 0.00 0.00 35 1019.5
20260507145313 73 236 0.0 2.0 0.00 0.00 0.00 35 1019.7
20260507144811 73 193 2.0 2.0 0.00 0.00 0.00 36 1019.7
20260507144307 72 196 1.0 3.0 0.00 0.00 0.00 39 1019.9
20260507143804 72 89 1.0 1.0 0.00 0.00 0.00 41 1020.1
20260507143302 72 210 0.0 3.0 0.00 0.00 0.00 39 1020.3
20260507142757 71 292 0.0 1.0 0.00 0.00 0.00 36 1020.2
20260507142254 71 187 1.0 2.0 0.00 0.00 0.00 39 1020.4
20260507141750 71 193 2.0 3.0 0.00 0.00 0.00 44 1020.2
20260507141248 71 231 2.0 3.0 0.00 0.00 0.00 49 1020.1
20260507140743 71 246 2.0 3.0 0.00 0.00 0.00 48 1020.2
20260507140241 71 201 2.0 3.0 0.00 0.00 0.00 48 1020.2
20260507135738 71 248 2.0 4.0 0.00 0.00 0.00 48 1019.8
20260507135235 71 228 5.0 6.0 0.00 0.00 0.00 48 1019.8
20260507134731 72 214 3.0 5.0 0.00 0.00 0.00 47 1020.0
20260507134228 72 218 3.0 5.0 0.00 0.00 0.00 41 1019.7
20260507133724 72 230 5.0 5.0 0.00 0.00 0.00 43 1019.7
20260507133221 72 233 4.0 6.0 0.00 0.00 0.00 48 1019.7
20260507132718 73 213 6.0 6.0 0.00 0.00 0.00 55 1019.6
20260507132215 73 222 5.0 6.0 0.00 0.00 0.00 55 1019.6
20260507131712 73 224 4.0 6.0 0.00 0.00 0.00 54 1019.7
20260507131209 72 206 4.0 5.0 0.00 0.00 0.00 51 1019.7
20260507130706 72 216 6.0 6.0 0.00 0.00 0.00 47 1019.8
20260507130204 73 202 4.0 7.0 0.00 0.00 0.00 50 1019.9
20260507125702 72 212 4.0 6.0 0.00 0.00 0.00 56 1019.9
20260507125159 73 224 5.0 6.0 0.00 0.00 0.00 55 1020.1
20260507124655 74 205 4.0 8.0 0.00 0.00 0.00 54 1020.3
20260507124153 74 223 5.0 7.0 0.00 0.00 0.00 52 1020.1
20260507123651 74 221 4.0 8.0 0.00 0.00 0.00 51 1020.2
20260507123148 73 223 6.0 7.0 0.00 0.00 0.00 50 1020.3
20260507122643 73 187 6.0 6.0 0.00 0.00 0.00 50 1020.4
20260507122139 74 208 3.0 6.0 0.00 0.00 0.00 48 1020.7
20260507121635 75 229 5.0 8.0 0.00 0.00 0.00 49 1020.5
20260507121131 75 213 4.0 7.0 0.00 0.00 0.00 48 1020.7
20260507120628 74 203 4.0 7.0 0.00 0.00 0.00 47 1020.7
20260507120124 73 207 4.0 7.0 0.00 0.00 0.00 51 1020.7
20260507115621 73 217 6.0 7.0 0.00 0.00 0.00 50 1020.6
20260507115117 75 205 5.0 7.0 0.00 0.00 0.00 50 1020.4
20260507114613 75 227 5.0 9.0 0.00 0.00 0.00 54 1020.4
20260507114110 74 199 6.0 8.0 0.00 0.00 0.00 52 1020.4
20260507113607 74 214 5.0 7.0 0.00 0.00 0.00 53 1020.2
20260507113104 75 228 4.0 7.0 0.00 0.00 0.00 52 1020.0
20260507112602 74 229 4.0 6.0 0.00 0.00 0.00 54 1020.2
20260507112059 73 209 4.0 4.0 0.00 0.00 0.00 53 1020.4
20260507111555 73 229 4.0 6.0 0.00 0.00 0.00 55 1020.7
20260507111052 73 239 2.0 5.0 0.00 0.00 0.00 57 1020.8
20260507110548 73 226 4.0 5.0 0.00 0.00 0.00 60 1020.9
20260507110045 73 231 3.0 5.0 0.00 0.00 0.00 59 1020.8
20260507105542 73 242 3.0 5.0 0.00 0.00 0.00 57 1020.5
20260507105038 74 240 4.0 5.0 0.00 0.00 0.00 56 1020.4
20260507104535 73 250 2.0 5.0 0.00 0.00 0.00 60 1020.5
20260507104032 73 217 4.0 6.0 0.00 0.00 0.00 61 1020.3
20260507103528 73 236 4.0 4.0 0.00 0.00 0.00 61 1020.5
20260507103025 72 207 4.0 4.0 0.00 0.00 0.00 62 1020.6
20260507102522 72 230 4.0 5.0 0.00 0.00 0.00 62 1020.6
20260507102018 72 230 4.0 5.0 0.00 0.00 0.00 61 1020.5
20260507101513 72 248 4.0 5.0 0.00 0.00 0.00 62 1020.5
20260507101010 71 225 4.0 5.0 0.00 0.00 0.00 63 1020.6
20260507100507 71 233 4.0 5.0 0.00 0.00 0.00 65 1020.4
20260507100005 71 234 4.0 5.0 0.00 0.00 0.00 64 1020.4
20260507095503 71 207 4.0 6.0 0.00 0.00 0.00 66 1020.5
20260507094959 71 231 7.0 9.0 0.00 0.00 0.00 64 1020.3
20260507094455 72 218 5.0 8.0 0.00 0.00 0.00 63 1020.2
20260507093953 72 218 6.0 6.0 0.00 0.00 0.00 60 1020.2
20260507093450 72 214 4.0 6.0 0.00 0.00 0.00 63 1020.5
20260507092948 71 209 5.0 6.0 0.00 0.00 0.00 62 1020.5
20260507092444 71 206 5.0 5.0 0.00 0.00 0.00 62 1020.6
20260507091941 72 198 5.0 7.0 0.00 0.00 0.00 62 1020.6
20260507091438 72 203 5.0 7.0 0.00 0.00 0.00 65 1020.6
20260507090934 71 215 3.0 6.0 0.00 0.00 0.00 65 1020.2
20260507090430 71 227 4.0 6.0 0.00 0.00 0.00 65 1020.4
20260507085926 70 217 6.0 7.0 0.00 0.00 0.00 65 1020.3
20260507085424 70 215 6.0 6.0 0.00 0.00 0.00 65 1020.4
20260507084921 70 231 7.0 8.0 0.00 0.00 0.00 67 1020.3
20260507084417 70 223 5.0 7.0 0.00 0.00 0.00 67 1020.4
20260507083915 70 216 5.0 6.0 0.00 0.00 0.00 65 1020.1
20260507083411 70 244 4.0 4.0 0.00 0.00 0.00 68 1020.2
20260507082907 70 214 4.0 5.0 0.00 0.00 0.00 68 1020.2
20260507082403 70 218 5.0 6.0 0.00 0.00 0.00 66 1020.2
20260507081901 70 228 5.0 6.0 0.00 0.00 0.00 66 1020.3
20260507081356 70 206 3.0 5.0 0.00 0.00 0.00 67 1020.2
20260507080853 69 211 4.0 6.0 0.00 0.00 0.00 68 1020.0
20260507080349 70 221 4.0 7.0 0.00 0.00 0.00 67 1020.0
20260507075845 69 243 2.0 5.0 0.00 0.00 0.00 67 1019.8
20260507075341 69 219 4.0 6.0 0.00 0.00 0.00 64 1019.9
20260507074838 69 214 5.0 6.0 0.00 0.00 0.00 64 1019.9
20260507074335 69 214 4.0 6.0 0.00 0.00 0.00 64 1019.7
20260507073832 69 229 6.0 9.0 0.00 0.00 0.00 66 1019.8
20260507073329 69 233 4.0 6.0 0.00 0.00 0.00 66 1019.7
20260507072826 69 223 4.0 6.0 0.00 0.00 0.00 65 1019.9
20260507072323 69 234 2.0 4.0 0.00 0.00 0.00 64 1020.1
20260507071821 69 239 2.0 4.0 0.00 0.00 0.00 65 1020.0
20260507071318 69 195 4.0 6.0 0.00 0.00 0.00 64 1020.1
20260507070814 69 219 3.0 3.0 0.00 0.00 0.00 64 1019.9
20260507070312 68 242 3.0 4.0 0.00 0.00 0.00 64 1019.9
20260507065808 68 218 3.0 4.0 0.00 0.00 0.00 64 1019.8
20260507065306 68 218 4.0 5.0 0.00 0.00 0.00 65 1019.9
20260507064802 68 230 4.0 5.0 0.00 0.00 0.00 64 1019.7
20260507064301 68 248 3.0 4.0 0.00 0.00 0.00 63 1019.8
20260507063758 68 229 3.0 4.0 0.00 0.00 0.00 63 1019.8
20260507063255 67 227 3.0 4.0 0.00 0.00 0.00 64 1019.9
20260507062751 67 243 3.0 4.0 0.00 0.00 0.00 63 1019.6
20260507062249 68 221 3.0 4.0 0.00 0.00 0.00 63 1019.7
20260507061747 68 232 6.0 6.0 0.00 0.00 0.00 60 1019.7
20260507061244 67 220 4.0 5.0 0.00 0.00 0.00 60 1019.6
20260507060743 67 227 3.0 5.0 0.00 0.00 0.00 58 1019.4
20260507060239 67 208 3.0 4.0 0.00 0.00 0.00 57 1019.4
20260507055735 67 220 4.0 5.0 0.00 0.00 0.00 58 1019.4
20260507055230 67 195 3.0 4.0 0.00 0.00 0.00 57 1019.3
20260507054726 67 205 3.0 4.0 0.00 0.00 0.00 56 1019.2
20260507054224 66 201 2.0 3.0 0.00 0.00 0.00 53 1019.2
20260507053721 65 214 2.0 3.0 0.00 0.00 0.00 60 1019.4
20260507053219 65 109 0.0 2.0 0.00 0.00 0.00 58 1019.2
20260507052718 64 226 2.0 3.0 0.00 0.00 0.00 58 1019.2
20260507052213 63 197 2.0 3.0 0.00 0.00 0.00 54 1019.2
20260507051712 61 281 1.0 2.0 0.00 0.00 0.00 57 1019.3
20260507051208 61 203 0.0 2.0 0.00 0.00 0.00 60 1019.2
20260507050705 60 217 0.0 2.0 0.00 0.00 0.00 61 1019.3
20260507050202 60 207 0.0 2.0 0.00 0.00 0.00 61 1019.1
20260507045658 59 191 2.0 2.0 0.00 0.00 0.00 63 1019.2
20260507045156 59 191 0.0 2.0 0.00 0.00 0.00 62 1019.1
20260507044652 59 185 2.0 2.0 0.00 0.00 0.00 62 1019.2
20260507044148 59 198 0.0 2.0 0.00 0.00 0.00 62 1019.0
20260507043644 58 182 0.0 2.0 0.00 0.00 0.00 62 1018.8
20260507043142 58 208 0.0 2.0 0.00 0.00 0.00 61 1018.7
20260507042638 58 189 1.0 2.0 0.00 0.00 0.00 60 1018.3
20260507042134 58 117 0.0 2.0 0.00 0.00 0.00 60 1018.3
20260507041631 58 187 0.0 2.0 0.00 0.00 0.00 59 1018.4
20260507041127 58 185 2.0 2.0 0.00 0.00 0.00 58 1018.3
20260507040624 58 190 1.0 2.0 0.00 0.00 0.00 58 1018.2
20260507040120 57 185 0.0 2.0 0.00 0.00 0.00 60 1018.0
20260507035616 57 202 2.0 2.0 0.00 0.00 0.00 59 1018.1
20260507035113 57 186 1.0 2.0 0.00 0.00 0.00 59 1018.1
20260507034610 57 193 2.0 2.0 0.00 0.00 0.00 59 1018.0
20260507034107 57 186 1.0 2.0 0.00 0.00 0.00 60 1017.8
20260507033605 57 192 0.0 2.0 0.00 0.00 0.00 62 1017.7
20260507033102 57 210 0.0 2.0 0.00 0.00 0.00 62 1017.8
20260507032600 57 201 2.0 2.0 0.00 0.00 0.00 62 1017.7
20260507032055 57 147 0.0 2.0 0.00 0.00 0.00 60 1017.5
20260507031552 58 179 0.0 2.0 0.00 0.00 0.00 60 1017.5
20260507031049 57 185 1.0 2.0 0.00 0.00 0.00 59 1017.5
20260507030545 58 345 0.0 1.0 0.00 0.00 0.00 59 1017.5
20260507030044 57 208 3.0 3.0 0.00 0.00 0.00 58 1017.5
20260507025540 57 184 2.0 3.0 0.00 0.00 0.00 62 1017.5
20260507025037 57 208 0.0 1.0 0.00 0.00 0.00 68 1017.6
20260507024536 57 168 0.0 2.0 0.00 0.00 0.00 69 1017.9
20260507024032 57 152 0.0 2.0 0.00 0.00 0.00 70 1017.9
20260507023528 56 188 1.0 2.0 0.00 0.00 0.00 71 1018.0
20260507023026 56 37 0.0 3.0 0.00 0.00 0.00 72 1018.1
20260507022522 56 173 1.0 2.0 0.00 0.00 0.00 71 1018.2
20260507022018 56 85 0.0 2.0 0.00 0.00 0.00 71 1018.1
20260507021514 56 181 1.0 2.0 0.00 0.00 0.00 69 1018.3
20260507021011 57 232 0.0 2.0 0.00 0.00 0.00 68 1017.9
20260507020508 57 220 0.0 2.0 0.00 0.00 0.00 67 1017.7
20260507020004 57 104 0.0 2.0 0.00 0.00 0.00 66 1017.6
20260507015503 57 161 0.0 2.0 0.00 0.00 0.00 66 1017.6
20260507015000 57 155 0.0 2.0 0.00 0.00 0.00 68 1017.7
20260507014456 57 191 0.0 2.0 0.00 0.00 0.00 68 1017.8
20260507013952 57 151 0.0 2.0 0.00 0.00 0.00 68 1017.8
20260507013449 57 168 0.0 2.0 0.00 0.00 0.00 67 1017.8
20260507012947 58 182 2.0 3.0 0.00 0.00 0.00 65 1017.8
20260507012443 58 178 1.0 2.0 0.00 0.00 0.00 66 1017.7
20260507011940 58 179 1.0 3.0 0.00 0.00 0.00 67 1017.7
20260507011437 58 176 0.0 1.0 0.00 0.00 0.00 69 1017.7
20260507010937 57 175 0.0 2.0 0.00 0.00 0.00 70 1017.6
20260507010433 57 162 0.0 2.0 0.00 0.00 0.00 71 1017.6
20260507005930 57 174 0.0 2.0 0.00 0.00 0.00 70 1017.6
20260507005427 57 193 0.0 2.0 0.00 0.00 0.00 70 1017.9
20260507004923 57 191 1.0 3.0 0.00 0.00 0.00 69 1018.0
20260507004420 58 136 0.0 2.0 0.00 0.00 0.00 68 1018.0
20260507003918 58 172 0.0 1.0 0.00 0.00 0.00 67 1018.0
20260507003412 58 206 2.0 3.0 0.00 0.00 0.00 64 1017.9
20260507002908 59 206 2.0 2.0 0.00 0.00 0.00 64 1017.8
20260507002404 58 193 2.0 2.0 0.00 0.00 0.00 63 1017.6
20260507001902 59 202 2.0 2.0 0.00 0.00 0.00 65 1017.6
20260507001358 59 153 0.0 2.0 0.00 0.00 0.00 64 1017.8
20260507000856 59 116 0.0 2.0 0.00 0.00 0.00 61 1017.8
20260507000350 60 155 0.0 2.0 0.00 0.00 0.00 62 1017.7
20260506235847 60 194 0.0 3.0 0.00 0.00 0.00 63 1017.8
20260506235344 59 133 0.0 2.0 0.00 0.00 0.00 66 1018.1
20260506234840 59 186 2.0 3.0 0.00 0.00 0.00 67 1018.3
20260506234338 59 183 1.0 2.0 0.00 0.00 0.00 67 1018.6
20260506233836 58 180 1.0 2.0 0.00 0.00 0.00 67 1018.9
20260506233331 58 217 0.0 2.0 0.00 0.00 0.00 67 1019.0
20260506232828 58 173 1.0 2.0 0.00 0.00 0.00 67 1018.9
20260506232324 58 174 1.0 2.0 0.00 0.00 0.00 67 1019.0
20260506231821 58 189 1.0 2.0 0.00 0.00 0.00 67 1018.9
20260506231319 59 182 0.0 2.0 0.00 0.00 0.00 67 1018.9
20260506230816 59 184 2.0 2.0 0.00 0.00 0.00 65 1019.0
20260506230312 59 209 0.0 3.0 0.00 0.00 0.00 65 1019.0
20260506225808 60 152 0.0 2.0 0.00 0.00 0.00 66 1018.8
20260506225306 60 189 2.0 2.0 0.00 0.00 0.00 64 1018.8
20260506224803 60 201 2.0 3.0 0.00 0.00 0.00 65 1018.9
20260506224300 60 10 0.0 3.0 0.00 0.00 0.00 66 1019.1
20260506223756 60 5 0.0 2.0 0.00 0.00 0.00 65 1018.9
20260506223251 60 86 1.0 3.0 0.00 0.00 0.00 67 1019.2
20260506222748 59 192 1.0 2.0 0.00 0.00 0.00 69 1019.2
20260506222244 60 277 0.0 2.0 0.00 0.00 0.00 71 1019.4
20260506221742 60 28 0.0 2.0 0.00 0.00 0.00 71 1019.3
20260506221240 60 31 0.0 2.0 0.00 0.00 0.00 71 1019.1
20260506220737 60 168 0.0 2.0 0.00 0.00 0.00 71 1019.2
20260506220232 60 175 0.0 2.0 0.00 0.00 0.00 71 1019.3
20260506215729 60 217 0.0 2.0 0.00 0.00 0.00 71 1019.1
20260506215224 60 66 0.0 3.0 0.00 0.00 0.00 70 1018.9
20260506214721 60 165 1.0 2.0 0.00 0.00 0.00 70 1019.0
20260506214218 60 180 1.0 2.0 0.00 0.00 0.00 70 1019.1
20260506213716 60 171 0.0 2.0 0.00 0.00 0.00 69 1019.0
20260506213213 60 206 0.0 2.0 0.00 0.00 0.00 68 1018.9
20260506212711 60 152 2.0 3.0 0.00 0.00 0.00 68 1018.9
20260506212206 59 147 2.0 2.0 0.00 0.00 0.00 71 1018.7
20260506211702 59 238 0.0 2.0 0.00 0.00 0.00 71 1018.7
20260506211158 59 158 0.0 2.0 0.00 0.00 0.00 70 1019.0
20260506210655 59 193 0.0 2.0 0.00 0.00 0.00 69 1019.0
20260506210152 59 182 1.0 2.0 0.00 0.00 0.00 69 1018.8
20260506205650 60 163 0.0 2.0 0.00 0.00 0.00 68 1018.6
20260506205149 60 140 0.0 2.0 0.00 0.00 0.00 67 1018.5
20260506204648 61 48 0.0 0.0 0.00 0.00 0.00 65 1018.2
20260506204144 61 95 1.0 2.0 0.00 0.00 0.00 65 1018.3
20260506203643 61 22 0.0 1.0 0.00 0.00 0.00 65 1018.3
20260506203139 61 176 0.0 2.0 0.00 0.00 0.00 65 1018.4
20260506202637 61 218 0.0 2.0 0.00 0.00 0.00 66 1018.3
20260506202133 61 197 0.0 2.0 0.00 0.00 0.00 66 1018.3
20260506201630 61 177 1.0 2.0 0.00 0.00 0.00 66 1018.5
20260506201127 62 208 2.0 2.0 0.00 0.00 0.00 66 1018.5
20260506200623 62 181 1.0 2.0 0.00 0.00 0.00 66 1018.7
20260506200120 61 177 1.0 2.0 0.00 0.00 0.00 67 1018.8
20260506195617 61 87 1.0 2.0 0.00 0.00 0.00 67 1018.8
20260506195113 61 194 2.0 2.0 0.00 0.00 0.00 68 1018.8
20260506194611 61 100 0.0 3.0 0.00 0.00 0.00 68 1018.9
20260506194107 62 155 2.0 3.0 0.00 0.00 0.00 68 1018.9
20260506193605 62 85 0.0 2.0 0.00 0.00 0.00 67 1019.0
20260506193102 62 31 0.0 2.0 0.00 0.00 0.00 67 1018.9
20260506192559 62 181 0.0 0.0 0.00 0.00 0.00 67 1019.1
20260506192054 62 161 0.0 2.0 0.00 0.00 0.00 67 1018.8
20260506191551 62 197 1.0 2.0 0.00 0.00 0.00 69 1018.9
20260506191047 62 226 0.0 1.0 0.00 0.00 0.00 69 1018.8
20260506190545 62 210 0.0 1.0 0.00 0.00 0.00 69 1018.7
20260506190042 62 209 1.0 2.0 0.00 0.00 0.00 69 1018.9
20260506185539 63 54 0.0 2.0 0.00 0.00 0.00 70 1018.7
20260506185035 63 184 1.0 2.0 0.00 0.00 0.00 70 1018.7
20260506184532 63 191 1.0 2.0 0.00 0.00 0.00 71 1018.6
20260506184030 63 220 0.0 2.0 0.00 0.00 0.00 71 1018.7
20260506183525 63 191 2.0 2.0 0.00 0.00 0.00 71 1018.6
20260506183023 63 187 0.0 2.0 0.00 0.00 0.00 71 1018.6
20260506182520 63 161 1.0 2.0 0.00 0.00 0.00 71 1018.6
20260506182017 63 185 0.0 2.0 0.00 0.00 0.00 71 1018.5
20260506181515 64 176 1.0 2.0 0.00 0.00 0.00 71 1018.5
20260506181011 64 20 1.0 2.0 0.00 0.00 0.00 70 1018.5
20260506180508 65 192 0.0 0.0 0.00 0.00 0.00 70 1018.4
20260506180005 65 191 2.0 2.0 0.00 0.00 0.00 71 1018.3
20260506175501 65 196 2.0 2.0 0.00 0.00 0.00 70 1018.5
20260506174957 66 197 2.0 3.0 0.00 0.00 0.00 69 1018.1
20260506174456 66 200 2.0 2.0 0.00 0.00 0.00 69 1018.1
20260506173952 66 193 2.0 2.0 0.00 0.00 0.00 70 1018.3
20260506173450 66 203 0.0 2.0 0.00 0.00 0.00 70 1018.2
20260506172946 67 177 2.0 2.0 0.00 0.00 0.00 70 1018.1
20260506172444 67 196 1.0 2.0 0.00 0.00 0.00 70 1018.0
20260506171940 67 183 1.0 2.0 0.00 0.00 0.00 70 1018.1
20260506171437 68 181 2.0 3.0 0.00 0.00 0.00 70 1017.8